Location: Newark
(45.8667°N, 9.7333°E)
Time: 06:59:02
(UTC+00:00)

A-11 Canister half - Pass Details

Date: 26 January 2020
Orbit: 1517 x 1683 km, 47.2° (Epoch: 17 February)

Event Time Altitude Azimuth Distance (km) Brightness Sun altitude
Rises 02:28:07 0° 279° (W) 4,689 - -45.1°
Reaches altitude 10° 02:31:10 10° 280° (W) 3,695 - -44.6°
Maximum altitude 02:40:30 87° 11° (N) 1,524 - -43.1°
Exits shadow 02:42:58 56° 96° (E) 1,770 9.3 -42.7°
Drops below altitude 10° 02:49:50 10° 101° (E) 3,695 11.5 -41.6°
Sets 02:52:53 0° 102° (ESE) 4,690 12.2 -41.1°
